Weather History for Coolangatta Airport Aws, Queensland

Change the Weather History Date:

Tuesday, July 23, 2013

  Actual Average Record
Temperature  
Mean Temperature 55 °F -  
Max Temperature 66 °F - - ()
Min Temperature 44 °F - - ()
Degree Days  
Heating Degree Days 10    
Growing Degree Days 5 (Base 50)    
Moisture  
Dew Point 46 °F    
Average Humidity 71    
Maximum Humidity 100    
Minimum Humidity 27    
Precipitation  
Precipitation 0.00 in - - ()
Sea Level Pressure  
Sea Level Pressure 30.13 in    
Wind  
Wind Speed 4 mph ()    
Max Wind Speed 9 mph    
Max Gust Speed -    
Visibility 6.2 miles    
Events      
T = Trace of Precipitation, MM = Missing Value Source: Averaged Metar Reports

Daily Weather History Graph

Daily Weather History Graph

Search for Another Location

Airport:

Trip Planner

Search our weather history database for the weather conditions in past years. The results will help you decide how hot, cold, wet, or windy it might be!

Date:

Astronomy

Jul. 23, 2013 Rise Set
Actual Time 6:33 AM EST 5:11 PM EST
Civil Twilight 6:08 AM EST 5:36 PM EST
Nautical Twilight 5:39 AM EST 6:05 PM EST
Astronomical Twilight 5:11 AM EST 6:33 PM EST
Moon 5:51 PM EST (7/23) 6:25 AM EST (7/23)
Length of Visible Light 11h 28m
Length of Day
10h 37m
Full, 100% of the Moon is Illuminated
Jul 23
Full
Jul 30
Last Quarter
Aug 7
New
Aug 14
First Quarter
Aug 21
Full

Hourly Weather History & Observations

Time (EST) Temp. Windchill Dew Point Humidity Pressure Visibility Wind Dir Wind Speed Gust Speed Precip Events Conditions
12:00 AM 56 °F - 55 °F 95% 30.16 in 6 mi West 5.8 mph - -   Overcast
12:00 AM 57.2 °F - 55.4 °F 94% 30.15 in 5.6 mi West 5.8 mph - N/A   Overcast
12:30 AM 55.4 °F - 55.4 °F 100% 30.15 in 6.2 mi West 4.6 mph - N/A   Overcast
1:00 AM 55.4 °F - 53.6 °F 94% 30.12 in 6.2 mi Calm Calm - N/A   Overcast
1:30 AM 55.4 °F - 53.6 °F 94% 30.12 in 6.2 mi Calm Calm - N/A   Overcast
2:00 AM 55.4 °F - 55.4 °F 100% 30.12 in 6.2 mi Calm Calm - N/A   Overcast
2:30 AM 55.4 °F - 53.6 °F 94% 30.12 in 6.2 mi SW 5.8 mph - N/A   Overcast
3:00 AM 56 °F - 54 °F 89% 30.11 in - Calm Calm - -   Overcast
3:00 AM 55.4 °F - 53.6 °F 94% 30.09 in 6.2 mi Calm Calm - N/A   Overcast
3:30 AM 55.4 °F - 53.6 °F 94% 30.09 in 6.2 mi SW 5.8 mph - N/A   Overcast
4:00 AM 55.4 °F - 53.6 °F 94% 30.12 in 6.2 mi West 3.5 mph - N/A   Overcast
4:30 AM 55.4 °F - 53.6 °F 94% 30.12 in 6.2 mi South 4.6 mph - N/A   Overcast
5:00 AM 55.4 °F - 53.6 °F 94% 30.12 in 6.2 mi Calm Calm - N/A   Overcast
5:30 AM 53.6 °F - 53.6 °F 100% 30.15 in 6.2 mi South 2.3 mph - N/A   Mostly Cloudy
6:00 AM 54 °F - 52 °F 92% 30.16 in - Calm Calm - -  
6:00 AM 53.6 °F - 51.8 °F 94% 30.15 in 6.2 mi Calm Calm - N/A   Mostly Cloudy
6:30 AM 53.6 °F - 51.8 °F 94% 30.15 in 6.2 mi South 5.8 mph - N/A   Unknown
7:00 AM 53.6 °F - 46.4 °F 77% 30.15 in 6.2 mi South 8.1 mph - N/A   Unknown
7:30 AM 53.6 °F - 46.4 °F 77% 30.15 in 6.2 mi SSW 6.9 mph - N/A   Unknown
8:00 AM 57.2 °F - 46.4 °F 67% 30.18 in 6.2 mi SSW 5.8 mph - N/A   Unknown
8:30 AM 55.4 °F - 46.4 °F 72% 30.18 in 6.2 mi SSW 4.6 mph - N/A   Unknown
9:00 AM 58 °F - 44 °F 50% 30.21 in - SSW 5.8 mph - -  
9:00 AM 57.2 °F - 44.6 °F 63% 30.18 in 6.2 mi South 5.8 mph - N/A   Unknown
9:30 AM 59.0 °F - 46.4 °F 63% 30.18 in 6.2 mi SSW 6.9 mph - N/A   Unknown
10:00 AM 62.6 °F - 42.8 °F 48% 30.18 in 6.2 mi SW 9.2 mph - N/A   Unknown
10:30 AM 62.6 °F - 41.0 °F 45% 30.18 in 6.2 mi SW 9.2 mph - N/A   Unknown
11:00 AM 64.4 °F - 41.0 °F 42% 30.15 in 6.2 mi SW 9.2 mph - N/A   Unknown
11:30 AM 64.4 °F - 41.0 °F 42% 30.15 in 6.2 mi South 9.2 mph - N/A   Unknown
12:00 PM 64 °F - 38 °F 27% 30.15 in - SW 8.1 mph - -  
12:00 PM 64.4 °F - 37.4 °F 37% 30.12 in 6.2 mi SW 8.1 mph - N/A   Unknown
12:30 PM 64.4 °F - 37.4 °F 37% 30.12 in 6.2 mi SSW 5.8 mph - N/A   Unknown
1:00 PM 66.2 °F - 42.8 °F 43% 30.09 in 6.2 mi North 5.8 mph - N/A   Unknown
1:30 PM 64.4 °F - 41.0 °F 42% 30.09 in 6.2 mi NE 8.1 mph - N/A   Unknown
2:00 PM 66.2 °F - 41.0 °F 40% 30.09 in 6.2 mi NNE 6.9 mph - N/A   Unknown
2:30 PM 66.2 °F - 42.8 °F 43% 30.06 in 6.2 mi NNE 8.1 mph - N/A   Unknown
3:00 PM 66 °F - 44 °F 33% 30.09 in - NNE 9.2 mph - -  
3:00 PM 66.2 °F - 44.6 °F 46% 30.06 in 6.2 mi NNE 9.2 mph - N/A   Unknown
3:30 PM 66.2 °F - 44.6 °F 46% 30.06 in 6.2 mi North 6.9 mph - N/A   Unknown
4:00 PM 64.4 °F - 41.0 °F 42% 30.06 in 6.2 mi East 2.3 mph - N/A   Unknown
4:30 PM 64.4 °F - 39.2 °F 40% 30.06 in 6.2 mi South 4.6 mph - N/A   Unknown
5:00 PM 59.0 °F - 44.6 °F 59% 30.09 in 6.2 mi WNW 2.3 mph - N/A   Unknown
5:30 PM 55.4 °F - 42.8 °F 63% 30.09 in 6.2 mi WSW 3.5 mph - N/A   Unknown
6:00 PM 53 °F - 44 °F 64% 30.13 in - WSW 3.5 mph - -  
6:00 PM 51.8 °F - 44.6 °F 76% 30.12 in 6.2 mi WSW 3.5 mph - N/A   Unknown
6:30 PM 51.8 °F - 46.4 °F 82% 30.12 in 6.2 mi WSW 4.6 mph - N/A   Unknown
7:00 PM 50.0 °F - 46.4 °F 87% 30.12 in 6.2 mi WSW 8.1 mph - N/A   Unknown
7:30 PM 50.0 °F - 44.6 °F 82% 30.15 in 6.2 mi WSW 8.1 mph - N/A   Unknown
8:00 PM 50.0 °F - 44.6 °F 82% 30.15 in 6.2 mi WSW 6.9 mph - N/A   Unknown
8:30 PM 50.0 °F - 44.6 °F 82% 30.15 in 6.2 mi WSW 6.9 mph - N/A   Unknown
9:00 PM 49 °F - 44 °F 75% 30.15 in - WSW 5.8 mph - -  
9:00 PM 48.2 °F - 42.8 °F 82% 30.12 in 6.2 mi WSW 5.8 mph - N/A   Unknown
9:30 PM 46.4 °F 42.9 °F 41.0 °F 81% 30.12 in 6.2 mi WSW 6.9 mph - N/A   Unknown
10:00 PM 46.4 °F 44.3 °F 41.0 °F 81% 30.15 in 6.2 mi WSW 4.6 mph - N/A   Unknown
10:30 PM 44.6 °F 42.2 °F 41.0 °F 87% 30.15 in 6.2 mi SW 4.6 mph - N/A   Unknown
11:00 PM 44.6 °F 43.1 °F 41.0 °F 87% 30.15 in 6.2 mi SW 3.5 mph - N/A   Unknown
11:30 PM 51.8 °F - 41.0 °F 67% 30.15 in 6.2 mi SSW 5.8 mph - N/A   Unknown